This demonstration page uses our WeatherBlox Daily Observations layout. Learn more.

Hourly Observations for February 18, 2019

Temp ( °F °C ) Dew Point ( °F °C ) Humidity (%) Winds ( mph kmh ) Pressure ( in mb ) Visibility ( mi km ) Precip ( " mm )
12:54 am 00:54 Clear 13 -10.6 7 -13.9 77 77 NW 8 13 30.34 1027 10 16.0934 0 0
1:54 am 01:54 Clear 12 -11.1 6 -14.4 77 77 NW 8 13 30.35 1028 10 16.0934 0 0
2:54 am 02:54 Clear 10 -12.2 6 -14.4 84 84 NW 9 15 30.38 1029 10 16.0934 0 0
3:54 am 03:54 Clear 9 -12.8 4 -15.6 80 80 NNW 12 19 30.38 1029 10 16.0934 0 0
4:54 am 04:54 Clear 8 -13.3 3 -16.1 80 80 NW 8 13 30.41 1030 10 16.0934 0 0
5:39 am 05:39 Mostly Cloudy 7 -13.9 3 -16.1 84 84 NNW 8 13 30.49 1033 10 16.0934 0 0
5:54 am 05:54 Cloudy 8 -13.3 4 -15.6 83 83 NW 7 11 30.44 1031 10 16.0934 0 0
6:54 am 06:54 Cloudy 6 -14.4 2 -16.7 83 83 NNW 8 13 30.47 1032 10 16.0934 0 0
7:10 am 07:10 Cloudy 8 -13.3 4 -15.6 83 83 NNW 6 9 30.54 1034 10 16.0934 0 0
7:54 am 07:54 Cloudy 9 -12.8 4 -15.6 80 80 W 7 11 30.52 1034 10 16.0934 0 0
8:54 am 08:54 Cloudy 11 -11.7 5 -15 77 77 NNW 8 13 30.54 1034 7 11.26538 0 0
9:54 am 09:54 Cloudy 13 -10.6 6 -14.4 74 74 N 10 17 30.55 1034 7 11.26538 0 0
10:54 am 10:54 Cloudy 16 -8.9 9 -12.8 74 74 N 7 11 30.59 1036 10 16.0934 0 0
11:54 am 11:54 Cloudy 18 -7.8 9 -12.8 68 68 N 7 11 30.6 1036 10 16.0934 0 0
12:30 pm 12:30 Cloudy 20 -6.7 10 -12.2 65 65 N 5 7 30.63 1037 10 16.0934 0 0
12:54 pm 12:54 Mostly Sunny 20 -6.7 10 -12.2 65 65 N 7 11 30.58 1036 10 16.0934 0 0
1:54 pm 13:54 Sunny 21 -6.1 11 -11.7 65 65 N 5 7 30.57 1035 10 16.0934 0 0
2:54 pm 14:54 Sunny 22 -5.6 11 -11.7 63 63 N 6 9 30.57 1035 10 16.0934 0 0
3:54 pm 15:54 Mostly Cloudy 21 -6.1 11 -11.7 65 65 NNE 6 9 30.58 1035 10 16.0934 0 0
4:54 pm 16:54 Cloudy 20 -6.7 11 -11.7 68 68 NE 8 13 30.57 1035 10 16.0934 0 0
5:54 pm 17:54 Cloudy 18 -7.8 10 -12.2 71 71 NE 6 9 30.58 1036 10 16.0934 0 0
6:54 pm 18:54 Mostly Cloudy 16 -8.9 9 -12.8 74 74 ENE 8 13 30.6 1036 10 16.0934 0 0
7:54 pm 19:54 Clear 14 -10 7 -13.9 73 73 NE 5 7 30.61 1037 10 16.0934 0 0
8:54 pm 20:54 Cloudy 15 -9.4 8 -13.3 74 74 NNE 5 7 30.61 1037 10 16.0934 0 0
9:54 pm 21:54 Cloudy 15 -9.4 9 -12.8 77 77 Calm 30.61 1037 10 16.0934 0 0
10:54 pm 22:54 Cloudy 14 -10 8 -13.3 77 77 NNE 6 9 30.62 1037 10 16.0934 0 0
11:54 pm 23:54 Partly Cloudy 11 -11.7 6 -14.4 81 81 N 5 7 30.6 1036 10 16.0934 0 0

Powered by AerisWeather